FW7772 Weather Reports


Display with metric or nautical units.
time (UTC)temp
F
wind
direction
speed
MPH
gust
MPH
rain 1hr
in
rain 24hr
in
rain mn
in
humidity
%
barometer
mb
20260506041225 24 4 3.0 6.0 0.00 0.01 0.00 84 1013.1
20260506040223 23 356 2.0 5.0 0.00 0.01 0.00 85 1013.2
20260506035223 23 350 2.0 4.0 0.00 0.01 0.00 85 1013.2
20260506034711 23 351 3.0 6.0 0.00 0.01 0.00 85 1013.1
20260506033223 23 341 2.0 4.0 0.00 0.01 0.00 84 1012.9
20260506032224 23 287 1.0 3.0 0.00 0.01 0.00 85 1012.9
20260506031702 23 295 3.0 8.0 0.00 0.01 0.00 84 1012.9
20260506030223 23 305 7.0 10.0 0.00 0.01 0.00 84 1012.8
20260506025223 23 316 7.0 9.0 0.00 0.01 0.00 84 1012.8
20260506024222 23 331 6.0 10.0 0.00 0.01 0.00 84 1012.7
20260506023223 23 305 4.0 8.0 0.00 0.01 0.00 85 1012.7
20260506022222 23 331 4.0 8.0 0.00 0.01 0.00 84 1012.8
20260506021223 23 305 5.0 8.0 0.00 0.01 0.00 85 1012.7
20260506020220 23 293 3.0 5.0 0.00 0.01 0.00 85 1012.6
20260506015221 23 270 4.0 6.0 0.00 0.01 0.00 85 1012.6
20260506014221 23 300 4.0 6.0 0.00 0.01 0.00 85 1012.6
20260506013221 23 300 4.0 6.0 0.00 0.01 0.00 85 1012.5
20260506012655 23 310 4.0 5.0 0.00 0.01 0.00 85 1012.4
20260506011221 23 310 2.0 4.0 0.00 0.01 0.00 85 1012.3
20260506010222 24 288 2.0 3.0 0.00 0.01 0.00 85 1012.3
20260506005220 24 265 4.0 7.0 0.00 0.01 0.00 86 1012.0
20260506004705 24 305 4.0 7.0 0.00 0.01 0.00 86 1012.0
20260506004139 24 329 3.0 5.0 0.00 0.01 0.00 86 1011.9
20260506002656 24 327 4.0 7.0 0.00 0.01 0.00 86 1012.0
20260506001221 24 293 2.0 4.0 0.00 0.01 0.00 85 1011.9
20260506000221 24 285 2.0 3.0 0.00 0.01 0.00 85 1011.9
20260505235218 24 262 1.0 2.0 0.00 0.01 0.00 84 1011.8
20260505234219 24 257 1.0 3.0 0.00 0.01 0.00 84 1011.8
20260505233220 25 206 1.0 3.0 0.00 0.01 0.00 84 1011.8
20260505232218 25 351 0.0 1.0 0.00 0.01 0.00 84 1011.7
20260505231216 25 351 0.0 1.0 0.00 0.01 0.00 84 1011.6
20260505230217 25 351 0.0 1.0 0.00 0.01 0.00 84 1011.6
20260505225217 26 351 1.0 2.0 0.00 0.01 0.00 84 1011.6
20260505224216 26 351 1.0 2.0 0.00 0.01 0.00 84 1011.6
20260505223214 26 351 0.0 2.0 0.00 0.01 0.00 84 1011.6
20260505222215 26 338 1.0 2.0 0.00 0.01 0.00 83 1011.5
20260505221214 26 330 0.0 2.0 0.00 0.01 0.00 83 1011.4
20260505220215 27 330 1.0 2.0 0.00 0.01 0.00 82 1011.2
20260505215211 27 327 3.0 5.0 0.00 0.01 0.01 81 1011.2
20260505214643 27 276 2.0 5.0 0.00 0.01 0.01 80 1011.2
20260505213648 27 327 1.0 3.0 0.01 0.01 0.01 79 1011.2
20260505212210 28 321 2.0 3.0 0.01 0.01 0.01 79 1011.1
20260505211334 28 289 1.0 3.0 0.01 0.02 0.01 78 1011.0
20260505205658 29 289 1.0 2.0 0.01 0.03 0.01 76 1010.8
20260505204210 29 289 1.0 2.0 0.01 0.05 0.01 75 1010.7
20260505203210 30 283 3.0 4.0 0.00 0.05 0.00 75 1010.6
20260505202211 31 314 1.0 4.0 0.00 0.06 0.00 74 1010.6
20260505201210 31 275 2.0 3.0 0.00 0.07 0.00 74 1010.6
20260505200210 32 310 1.0 3.0 0.00 0.08 0.00 72 1010.3
20260505195211 33 263 1.0 2.0 0.00 0.09 0.00 71 1010.4
20260505194211 34 263 1.0 2.0 0.00 0.09 0.00 71 1010.2
20260505193207 35 263 0.0 1.0 0.00 0.09 0.00 69 1010.0
20260505192204 36 263 1.0 2.0 0.00 0.09 0.00 67 1009.9
20260505191205 37 263 0.0 1.0 0.00 0.09 0.00 66 1009.8
20260505190203 38 263 0.0 2.0 0.00 0.09 0.00 64 1009.8
20260505185202 39 263 2.0 3.0 0.00 0.09 0.00 63 1009.8
20260505184203 39 237 3.0 5.0 0.00 0.09 0.00 62 1009.7
20260505183202 40 231 3.0 9.0 0.00 0.09 0.00 59 1009.6
20260505182202 40 235 0.0 1.0 0.00 0.09 0.00 60 1009.6
20260505181202 40 235 1.0 6.0 0.00 0.09 0.00 60 1009.5
20260505180202 40 220 1.0 4.0 0.00 0.09 0.00 60 1009.4
20260505175201 40 268 1.0 3.0 0.00 0.09 0.00 60 1009.3
20260505174646 39 260 3.0 5.0 0.00 0.09 0.00 61 1009.4
20260505173201 38 289 3.0 5.0 0.00 0.09 0.00 61 1009.4
20260505172201 38 300 5.0 9.0 0.00 0.09 0.00 60 1009.3
20260505171201 38 318 4.0 12.0 0.00 0.09 0.00 59 1009.2
20260505170201 39 6 10.0 18.0 0.00 0.09 0.00 60 1009.3
20260505165201 39 300 14.0 21.0 0.00 0.09 0.00 60 1009.6
20260505165118 40 258 16.0 23.0 0.00 0.09 0.00 59 1009.5
20260505163201 41 300 17.0 25.0 0.00 0.09 0.00 57 1009.4
20260505162202 41 300 18.0 28.0 0.00 0.09 0.00 55 1009.3
20260505161201 42 310 11.0 20.0 0.00 0.09 0.00 45 1008.9
20260505161123 43 267 9.0 17.0 0.00 0.09 0.00 44 1008.7
20260505153201 43 268 9.0 14.0 0.00 0.09 0.00 44 1008.6
20260505152202 43 247 7.0 13.0 0.00 0.09 0.00 42 1008.7
20260505151641 43 310 8.0 12.0 0.00 0.09 0.00 42 1008.6
20260505150200 43 305 8.0 14.0 0.00 0.09 0.00 41 1008.6
20260505140200 43 343 14.0 25.0 0.00 0.09 0.00 46 1008.4
20260505130154 43 351 3.0 9.0 0.00 0.09 0.00 50 1007.9
20260505124154 43 18 9.0 20.0 0.00 0.09 0.00 49 1008.1
20260505123155 46 346 12.0 19.0 0.00 0.09 0.00 41 1008.1
20260505122152 45 270 11.0 20.0 0.00 0.09 0.00 39 1008.1
20260505121152 43 290 14.0 24.0 0.00 0.09 0.00 39 1008.1
20260505120632 44 287 8.0 14.0 0.00 0.09 0.00 40 1008.0
20260505115152 44 266 5.0 10.0 0.00 0.09 0.00 41 1007.8
20260505114152 44 237 4.0 10.0 0.00 0.09 0.00 40 1007.7
20260505113145 45 300 8.0 13.0 0.00 0.09 0.00 43 1007.7
20260505112146 44 310 14.0 26.0 0.00 0.09 0.00 39 1007.9
20260505111146 46 295 10.0 16.0 0.00 0.09 0.00 39 1007.5
20260505110146 44 291 11.0 17.0 0.00 0.09 0.00 43 1007.6
20260505102146 47 253 9.0 16.0 0.00 0.09 0.00 38 1007.4
20260505101146 46 249 8.0 13.0 0.00 0.09 0.00 42 1007.4
20260505100625 44 305 12.0 19.0 0.00 0.09 0.00 44 1007.6
20260505095145 42 283 12.0 17.0 0.00 0.09 0.00 45 1007.6
20260505094146 45 300 9.0 16.0 0.00 0.09 0.00 44 1007.3
20260505093631 43 289 11.0 21.0 0.00 0.09 0.00 48 1007.6
20260505092146 45 300 8.0 14.0 0.00 0.09 0.00 51 1007.5
20260505091146 43 290 9.0 17.0 0.00 0.09 0.00 47 1007.4
20260505090623 43 245 9.0 17.0 0.00 0.09 0.00 49 1007.3
20260505085141 44 324 8.0 17.0 0.00 0.09 0.00 50 1007.4
20260505084140 44 276 7.0 14.0 0.00 0.09 0.00 50 1007.1
20260505083141 42 285 6.0 13.0 0.00 0.09 0.00 52 1007.0
20260505082139 41 272 9.0 15.0 0.00 0.09 0.00 51 1007.0
20260505081139 41 316 10.0 15.0 0.00 0.09 0.00 49 1006.7
20260505080140 41 278 10.0 17.0 0.00 0.09 0.00 49 1006.7
20260505075139 41 328 11.0 18.0 0.00 0.09 0.00 49 1006.6
20260505074139 42 315 9.0 18.0 0.00 0.09 0.00 50 1006.6
20260505073617 42 322 5.0 15.0 0.00 0.09 0.00 53 1006.5
20260505072133 41 21 9.0 16.0 0.00 0.09 0.00 56 1006.6
20260505071133 40 330 7.0 12.0 0.00 0.09 0.00 57 1006.5
20260505070133 40 319 8.0 14.0 0.00 0.09 0.00 59 1006.4
20260505065133 39 358 8.0 15.0 0.00 0.09 0.00 62 1006.4
20260505064133 39 330 7.0 13.0 0.00 0.09 0.00 64 1006.4
20260505063134 38 327 7.0 14.0 0.00 0.09 0.00 64 1006.3
20260505062131 37 314 7.0 15.0 0.00 0.09 0.00 67 1006.2
20260505061130 37 1 7.0 14.0 0.00 0.09 0.00 70 1006.1
20260505061059 36 359 8.0 14.0 0.00 0.09 0.00 72 1006.1
20260505055131 35 277 6.0 10.0 0.00 0.09 0.00 73 1005.9
20260505054132 35 288 7.0 13.0 0.00 0.09 0.00 77 1005.9
20260505053132 34 305 6.0 11.0 0.00 0.09 0.00 78 1005.9
20260505052613 34 293 5.0 10.0 0.00 0.09 0.00 80 1005.7
20260505051130 33 278 6.0 12.0 0.00 0.09 0.00 81 1005.6
20260505050131 33 255 6.0 11.0 0.00 0.09 0.00 82 1005.5